Date,TemperatureHighF,TemperatureAvgF,TemperatureLowF,DewpointHighF,DewpointAvgF,DewpointLowF,HumidityHigh,HumidityAvg,HumidityLow,PressureMaxIn,PressureMinIn,WindSpeedMaxMPH,WindSpeedAvgMPH,GustSpeedMaxMPH,PrecipitationSumIn
2013-1-1,106.3,84.8,63.5,66.6,47.6,29.3,97,41,10,29.43,29.22,0,0,0,0.00
2013-1-2,86.2,71.5,61.3,62.9,58.1,53.8,92,65,33,29.60,29.29,0,0,0,0.00
2013-1-3,83.7,70.7,63.3,58.2,56.0,52.2,81,62,36,29.61,29.47,0,0,0,0.00
2013-1-4,102.4,76.6,56.1,68.3,50.3,6.1,99,52,10,29.55,29.39,0,0,2,0.18
2013-1-5,111.0,82.0,57.7,72.9,53.0,32.6,99,51,10,29.54,29.41,0,0,0,0.00
2013-1-6,104.5,78.5,60.3,71.9,57.6,44.0,99,57,13,29.71,29.53,0,0,0,0.00
2013-1-7,102.2,78.8,65.8,66.7,59.5,49.7,89,57,18,29.72,29.45,0,0,0,0.00
2013-1-8,108.3,82.6,60.8,64.0,47.0,25.6,98,48,10,29.44,28.94,0,0,0,0.00
2013-1-9,88.9,79.2,67.1,56.8,47.0,27.4,61,36,11,29.26,28.86,0,0,0,0.00
2013-1-10,78.6,71.4,65.7,58.0,54.9,52.8,74,57,43,29.38,29.24,0,0,0,0.00
2013-1-11,109.6,83.1,63.1,65.3,56.2,37.7,87,50,10,29.37,29.12,0,0,0,0.00
2013-1-12,114.8,85.4,66.4,68.5,56.1,34.6,97,51,10,29.42,29.17,0,0,0,0.00
2013-1-13,89.1,73.6,64.8,67.5,63.0,59.9,96,72,38,29.41,29.20,0,0,0,0.09
2013-1-14,78.8,67.0,59.5,64.6,54.3,38.6,99,69,25,29.66,29.35,0,0,0,0.01
2013-1-15,83.7,69.9,57.7,58.9,54.3,45.0,96,63,29,29.65,29.46,0,0,0,0.00
2013-1-16,99.9,76.8,55.9,68.1,54.2,39.8,98,55,14,29.50,29.31,0,0,0,0.00
2013-1-17,105.6,82.6,69.4,66.3,61.1,42.7,84,54,12,29.44,29.16,0,0,0,0.00
2013-1-18,116.4,89.9,67.5,69.9,55.6,37.9,93,46,10,29.25,28.97,0,0,0,0.00
2013-1-19,81.7,71.6,63.9,63.7,57.9,46.4,96,65,29,29.52,29.26,0,0,0,0.31
2013-1-20,70.9,66.6,63.1,67.6,65.0,62.0,99,95,85,29.55,29.47,0,0,0,0.38
2013-1-21,82.0,72.9,65.1,71.0,64.9,61.3,99,78,50,29.51,29.37,0,0,0,0.00
2013-1-22,98.2,75.5,63.9,70.9,64.7,50.4,99,78,20,29.39,29.23,0,0,0,0.09
2013-1-23,80.6,71.1,64.4,69.3,64.4,61.0,99,81,55,29.55,29.36,0,0,0,0.00
2013-1-24,88.5,74.1,66.9,67.2,63.7,60.5,93,72,39,29.55,29.42,0,0,0,0.00
2013-1-25,93.0,77.5,64.6,73.8,65.6,58.8,99,72,36,29.44,29.28,0,0,0,0.00
2013-1-26,91.4,79.2,67.8,73.0,65.5,58.4,99,67,34,29.40,29.28,0,0,0,0.00
2013-1-27,75.7,71.3,67.5,71.8,68.4,66.2,99,91,74,29.33,29.26,0,0,0,1.56
2013-1-28,70.2,69.3,67.3,69.9,69.0,67.0,99,99,99,29.30,29.13,0,0,0,2.37
2013-1-29,84.6,73.4,65.8,78.3,68.7,64.2,99,87,52,29.34,29.04,0,0,0,0.70
2013-1-30,84.2,72.3,65.5,70.7,67.4,64.1,99,86,54,29.48,29.35,0,0,0,0.00
2013-1-31,88.5,73.9,68.5,72.8,68.8,63.2,99,87,44,29.47,29.21,0,0,0,0.00
2013-2-1,92.7,70.8,61.9,77.5,67.2,59.4,99,90,33,29.26,29.13,0,0,0,1.15
2013-2-2,71.8,60.4,54.9,62.3,58.4,54.6,99,94,57,29.46,29.18,0,0,0,0.39
2013-2-3,76.5,64.2,52.2,62.7,54.6,48.8,99,76,38,29.58,29.40,0,0,0,0.00
2013-2-4,82.8,67.7,55.4,68.6,57.3,49.7,99,74,35,29.75,29.57,0,0,0,0.00
2013-2-5,82.6,68.8,57.6,67.4,58.8,54.0,99,75,42,29.76,29.64,0,0,0,0.00
2013-2-6,87.6,70.1,57.2,70.7,56.1,45.9,99,68,27,29.69,29.52,0,0,0,0.00
2013-2-7,90.9,72.5,55.0,68.5,55.7,43.8,99,64,21,29.59,29.45,0,0,0,0.00
2013-2-8,98.8,76.1,55.9,68.8,57.3,44.2,99,62,16,29.58,29.45,0,0,0,0.00
2013-2-9,98.1,78.2,60.3,72.6,62.2,48.5,99,66,19,29.54,29.36,0,0,0,0.00
2013-2-10,99.7,78.0,65.1,74.1,64.7,44.3,99,72,16,29.63,29.38,0,0,0,0.38
2013-2-11,71.4,66.8,64.6,68.7,66.0,64.3,99,97,88,29.62,29.54,0,0,0,0.06
2013-2-12,74.5,67.6,64.2,71.9,66.2,63.7,99,95,78,29.69,29.56,0,0,0,0.07
2013-2-13,79.9,68.2,60.1,69.0,61.3,53.1,99,82,40,29.74,29.65,0,0,0,0.01
2013-2-14,85.3,68.7,55.8,74.1,58.5,50.8,99,75,32,29.70,29.58,0,0,0,0.00
2013-2-15,79.5,68.4,59.5,69.2,62.2,56.0,99,83,45,29.92,29.59,0,0,0,0.00
2013-2-16,84.2,68.5,57.9,74.1,60.2,53.8,99,79,37,29.68,29.59,0,0,0,0.07
2013-2-17,85.8,69.7,59.9,72.5,59.5,49.5,99,75,33,29.68,29.58,0,0,0,0.00
2013-2-18,85.6,69.1,57.0,68.8,59.9,52.6,99,78,37,29.63,29.48,0,0,0,0.01
2013-2-19,90.1,73.5,59.9,71.6,62.2,51.0,99,74,28,29.52,29.39,0,0,0,0.01
2013-2-20,87.3,72.6,61.9,72.3,62.1,52.1,99,76,30,29.55,29.44,0,0,0,0.01
2013-2-21,81.0,70.4,65.1,74.8,67.8,64.9,99,92,60,29.57,29.50,0,0,0,0.53
2013-2-22,76.1,67.5,63.7,74.1,66.8,63.4,99,98,75,29.56,29.47,0,0,0,0.58
2013-2-23,72.9,69.0,64.6,72.6,68.7,64.3,99,99,99,29.48,29.21,0,0,0,2.37
2013-2-24,88.3,76.8,68.0,80.3,71.5,65.8,99,86,49,29.45,29.27,0,0,0,0.01
2013-2-25,89.4,77.8,67.8,83.3,70.2,66.8,99,80,50,29.54,29.43,0,0,0,0.00
2013-2-26,84.9,76.0,67.1,72.4,68.0,63.1,99,78,51,29.56,29.46,0,0,0,0.01
2013-2-27,88.3,75.3,63.5,74.1,64.7,55.8,99,74,34,29.51,29.33,0,0,0,0.00
2013-2-28,86.2,72.4,61.5,77.7,66.4,61.3,99,84,45,29.37,29.21,0,0,0,0.02
2013-3-1,64.9,63.0,59.5,64.7,62.7,59.3,99,99,99,29.55,29.32,0,0,0,0.02
2013-3-2,65.5,61.8,59.7,65.2,61.5,59.5,99,99,99,29.64,29.54,0,0,0,0.00
2013-3-3,79.7,69.3,63.3,72.1,63.4,57.1,99,84,46,29.64,29.57,0,0,0,0.00
2013-3-4,78.3,67.8,59.0,72.8,62.5,58.7,99,85,54,29.67,29.60,0,0,0,0.00
2013-3-5,85.8,69.7,60.4,71.7,61.8,57.2,99,80,42,29.66,29.57,0,0,0,0.21
2013-3-6,87.3,71.5,61.2,76.5,61.4,52.0,99,76,36,29.63,29.52,0,0,0,0.00
2013-3-7,91.6,71.2,57.0,75.3,60.3,49.3,99,75,25,29.63,29.50,0,0,0,0.00
2013-3-8,86.5,70.0,57.0,74.4,60.5,53.3,99,76,33,29.67,29.59,0,0,0,0.00
2013-3-9,87.3,73.2,65.7,73.2,63.0,51.7,99,75,35,29.66,29.54,0,0,0,0.00
2013-3-10,90.1,70.1,59.7,66.7,61.1,54.2,99,79,30,29.62,29.49,0,0,0,0.00
2013-3-11,86.0,71.5,59.0,75.2,62.0,56.8,99,77,38,29.63,29.55,0,0,0,0.00
2013-3-12,89.4,70.4,58.8,72.1,60.9,50.9,99,77,32,29.64,29.49,0,0,0,0.00
2013-3-13,89.8,70.3,57.6,69.5,59.1,48.9,99,74,25,29.52,29.30,0,0,0,0.00
2013-3-14,82.2,69.9,58.1,73.1,64.2,57.8,99,84,49,29.43,29.29,0,0,0,0.00
2013-3-15,77.2,69.8,66.0,74.7,69.2,65.8,99,98,85,29.53,29.42,0,0,0,0.04
2013-3-16,94.1,74.4,64.6,73.8,67.4,60.6,99,82,35,29.51,29.22,0,0,0,0.00
2013-3-17,79.7,68.9,57.9,67.7,54.2,34.5,99,67,20,29.59,29.26,0,0,0,0.00
2013-3-18,76.6,63.0,50.9,58.0,52.5,45.4,99,74,33,29.69,29.57,0,0,0,0.00
2013-3-19,79.5,62.3,50.2,67.9,53.4,49.9,99,77,37,29.77,29.66,0,0,0,0.00
2013-3-20,82.8,64.8,52.5,68.0,56.7,49.7,99,80,35,29.77,29.62,0,0,0,0.00
2013-3-21,86.2,68.2,52.5,67.5,57.0,47.2,99,73,26,29.67,29.41,0,0,0,0.00
2013-3-22,89.1,74.4,61.9,70.8,63.4,59.2,99,73,38,29.48,29.39,0,0,0,0.00
2013-3-23,89.2,74.2,64.6,71.2,65.8,58.8,99,79,36,29.52,29.40,0,0,0,0.00
2013-3-24,94.6,73.6,64.6,73.0,63.6,51.2,99,77,23,29.51,29.32,0,0,0,0.00
2013-3-25,91.8,69.5,55.2,68.7,56.9,44.4,99,72,20,29.59,29.45,0,0,0,0.00
2013-3-26,90.0,71.8,59.7,74.1,66.6,59.5,99,86,44,29.60,29.45,0,0,0,0.00
2013-3-27,94.3,74.3,63.0,75.7,65.2,59.6,99,78,34,29.59,29.44,0,0,0,0.00
2013-3-28,89.4,74.4,61.9,76.5,64.1,54.5,99,76,31,29.53,29.36,0,0,0,0.18
2013-3-29,75.6,64.9,53.1,68.5,56.5,46.4,99,79,38,29.59,29.41,0,0,0,0.02
2013-3-30,83.5,63.7,52.2,66.5,55.8,49.6,99,80,35,29.58,29.33,0,0,0,0.00
2013-3-31,77.5,65.9,57.6,68.6,59.0,50.2,99,82,40,29.48,29.30,0,0,0,0.00
2013-4-1,78.8,66.7,57.9,69.4,59.4,54.4,99,81,44,29.54,29.44,0,0,0,0.00
2013-4-2,87.4,65.4,55.2,69.9,54.7,37.3,99,75,17,29.52,29.40,0,0,0,0.00
2013-4-3,68.7,60.2,54.9,68.5,59.9,54.6,99,99,93,29.73,29.52,0,0,0,0.17
2013-4-4,70.5,62.3,57.4,68.1,61.6,57.1,99,97,83,29.89,29.74,0,0,0,0.05
2013-4-5,79.9,64.6,55.2,68.1,57.9,47.1,99,83,33,29.92,29.81,0,0,0,0.00
2013-4-6,73.4,60.7,52.5,70.0,59.1,52.3,99,95,66,29.86,29.71,0,0,0,0.06
2013-4-7,77.5,63.4,55.2,69.4,59.6,55.0,99,89,48,29.74,29.62,0,0,0,0.01
2013-4-8,81.5,63.1,54.7,68.1,57.6,50.5,99,86,34,29.77,29.68,0,0,0,0.00
2013-4-9,74.1,63.0,54.5,69.0,61.7,54.2,99,96,65,29.81,29.70,0,0,0,0.01
2013-4-10,80.6,63.2,54.3,67.7,58.3,49.7,99,87,34,29.75,29.62,0,0,0,0.01
2013-4-11,82.4,64.4,50.9,64.8,52.5,45.9,99,74,29,29.73,29.62,0,0,0,0.00
2013-4-12,79.2,63.3,51.4,68.8,56.9,51.2,99,83,44,29.78,29.65,0,0,0,0.00
2013-4-13,76.3,61.5,50.9,67.2,59.1,50.6,99,93,47,29.66,29.45,0,0,0,0.00
2013-4-14,86.4,66.0,54.7,71.9,55.7,44.0,99,76,24,29.46,29.32,1,0,1,0.00
2013-4-15,86.0,60.1,54.7,64.0,55.4,48.4,99,88,33,29.34,29.21,0,0,0,0.09
2013-4-16,70.0,62.8,59.2,69.1,62.3,58.9,99,98,87,29.46,29.31,0,0,0,0.14
2013-4-17,74.5,63.2,55.0,68.0,58.8,54.8,99,88,53,29.50,29.39,0,0,0,0.00
2013-4-18,75.7,62.4,55.8,67.9,59.2,55.0,99,91,50,29.46,29.34,0,0,0,0.00
2013-4-19,69.8,58.3,48.2,59.0,48.1,37.8,99,74,33,29.44,29.36,0,0,0,0.00
2013-4-20,57.7,51.3,45.3,57.5,51.0,45.1,99,99,99,29.49,29.34,0,0,0,1.30
2013-4-21,69.4,55.5,45.1,64.3,52.4,44.9,99,91,54,29.50,29.35,0,0,0,0.01
2013-4-22,76.1,59.4,50.9,65.8,54.5,46.2,99,87,35,29.35,29.21,0,0,0,0.02
2013-4-23,119.1,57.9,43.9,99.9,50.1,42.8,99,81,30,29.48,29.34,0,0,0,0.00
2013-4-24,75.4,56.2,44.1,62.9,49.0,40.2,99,82,29,29.58,29.45,0,0,0,0.00
2013-4-25,73.8,55.2,44.4,60.5,47.4,38.7,99,80,28,29.67,29.57,0,0,0,0.00
2013-4-26,78.3,56.2,40.8,64.3,48.5,40.6,99,81,29,29.72,29.57,0,0,0,0.00
2013-4-27,80.4,58.1,42.3,64.9,50.5,42.0,99,81,30,29.68,29.52,0,0,0,0.00
2013-4-28,82.8,59.7,43.0,67.3,51.2,42.7,99,80,26,29.60,29.49,0,0,0,0.00
2013-4-29,104.5,61.1,43.7,65.7,50.8,37.2,99,77,10,29.69,29.58,0,0,0,0.00
2013-4-30,76.1,66.1,53.6,66.7,60.6,53.3,99,85,65,29.75,29.62,0,0,0,0.00
2013-5-1,84.9,75.9,65.1,75.0,60.7,43.5,99,61,25,29.63,29.38,0,0,0,0.00
2013-5-2,69.1,59.8,50.7,64.0,49.6,37.4,99,74,32,29.81,29.53,0,0,0,0.00
2013-5-3,72.5,54.6,43.0,60.7,48.4,42.7,99,84,38,29.81,29.59,0,0,0,0.00
2013-5-4,76.6,52.5,37.6,64.0,48.6,36.0,99,89,45,29.70,29.49,0,0,0,1.51
2013-5-5,57.7,55.7,55.6,55.4,52.8,52.7,92,90,90,29.73,29.62,0,0,0,0.00
2013-5-6,55.6,55.6,55.6,52.7,52.7,52.7,90,90,90,29.79,29.69,0,0,0,0.00
2013-5-7,55.6,55.6,55.6,52.7,52.7,52.7,90,90,90,29.86,29.76,0,0,0,0.00
2013-5-8,71.6,56.6,48.4,65.5,54.4,48.1,99,93,58,29.92,29.81,0,0,0,0.00
2013-5-9,74.5,56.6,48.0,66.1,52.8,47.8,99,89,43,29.91,29.81,0,0,0,0.00
2013-5-10,73.0,55.0,43.9,62.9,50.9,43.6,99,89,46,29.93,29.81,0,0,0,0.00
2013-5-11,71.2,59.1,50.7,67.9,58.2,50.5,99,97,77,29.90,29.78,0,0,0,0.01
2013-5-12,59.2,51.5,50.2,58.9,51.2,49.9,99,99,99,29.82,29.77,0,0,0,0.00
2013-5-15,50.9,49.3,47.7,50.6,49.0,47.4,99,99,99,29.35,29.35,0,0,0,0.02
2013-5-16,69.6,57.4,45.9,56.0,45.0,38.6,99,69,33,29.36,29.23,0,0,0,0.00
2013-5-17,66.4,51.2,37.8,57.5,38.1,27.3,99,69,24,29.43,29.31,0,0,0,0.00
2013-5-18,66.6,48.6,32.9,56.9,37.1,30.8,99,72,27,29.47,29.34,0,0,0,0.00
2013-5-19,64.8,46.5,31.1,54.8,35.8,28.5,99,74,26,29.53,29.42,0,0,0,0.00
2013-5-20,66.4,46.8,30.6,53.9,39.9,30.3,99,82,33,29.57,29.45,0,0,0,0.00
2013-5-21,70.2,51.3,34.3,59.5,42.3,34.1,99,78,28,29.52,29.38,0,0,0,0.00
2013-5-22,60.1,49.7,39.6,56.9,48.7,39.3,99,97,82,29.47,29.27,0,0,0,0.13
2013-5-23,60.4,53.3,49.6,60.2,53.0,49.4,99,99,99,29.46,29.27,0,0,0,0.86
2013-5-24,64.4,55.7,52.2,62.3,55.2,51.9,99,98,74,29.59,29.46,0,0,0,0.13
2013-5-25,67.8,54.9,46.6,63.4,52.6,46.3,99,93,60,29.72,29.60,0,0,0,0.01
2013-5-26,67.1,50.7,40.5,59.6,46.6,40.2,99,89,46,29.77,29.66,0,0,0,0.01
2013-5-27,55.0,47.5,41.0,54.8,47.2,40.7,99,99,99,29.89,29.74,0,0,0,0.01
2013-5-28,65.7,55.5,32.0,65.4,54.9,15.0,99,98,49,29.97,29.86,0,0,0,0.02
2013-5-29,68.0,55.6,48.4,66.3,55.0,48.1,99,98,70,29.93,29.80,0,0,0,0.01
2013-5-30,71.1,55.5,46.8,66.1,53.3,46.5,99,94,50,29.88,29.75,0,0,0,0.00
2013-5-31,72.9,55.5,44.4,68.8,52.7,44.2,99,92,52,29.85,29.69,0,0,0,0.00
2013-6-1,68.5,55.9,46.6,66.1,54.6,46.3,99,96,73,29.68,29.40,0,0,0,0.04
2013-6-2,58.1,53.7,14.9,57.8,53.4,14.7,99,99,99,29.45,29.12,0,0,0,0.65
2013-6-3,63.3,50.5,42.1,56.6,45.5,41.1,99,86,45,29.65,29.48,0,0,0,0.00
2013-6-4,65.3,49.4,38.5,59.8,47.1,38.2,99,93,59,29.79,29.68,0,0,0,0.00
2013-6-5,66.6,51.8,44.4,65.1,51.4,44.2,99,99,91,29.78,29.63,0,0,0,0.01
2013-6-6,63.7,54.2,46.8,63.4,53.9,46.5,99,99,99,29.70,29.59,0,0,0,0.00
2013-6-7,69.8,59.7,51.3,68.3,59.1,51.0,99,98,90,29.72,29.53,0,0,0,0.00
2013-6-8,63.7,52.9,43.2,63.1,52.4,42.9,99,98,90,29.91,29.76,0,0,0,0.00
2013-6-9,66.6,52.9,44.6,64.1,52.1,44.3,99,97,77,29.84,29.67,0,0,0,0.01
2013-6-10,66.4,52.6,45.7,66.1,52.3,45.4,99,99,99,29.67,29.54,0,0,0,0.07
2013-6-11,66.4,52.3,42.4,63.7,51.5,42.2,99,97,78,29.62,29.50,0,0,0,0.01
2013-6-12,58.3,51.2,46.2,58.0,50.9,46.0,99,99,99,29.48,29.25,0,0,0,0.51
2013-6-13,64.0,53.5,46.6,63.1,52.4,46.3,99,96,75,29.25,29.13,0,0,0,0.01
2013-6-14,63.0,52.9,26.2,60.4,49.0,9.7,99,88,49,29.20,29.11,0,0,0,0.01
2013-6-15,65.8,56.4,44.8,56.1,45.7,40.4,99,73,40,29.39,29.19,0,0,0,0.00
2013-6-16,62.1,53.2,43.3,52.8,48.7,42.7,99,86,51,29.44,29.32,0,0,26,0.00
2013-6-17,61.2,45.7,32.9,57.5,44.4,32.7,99,96,68,29.32,29.23,0,0,0,0.00
2013-6-18,61.5,48.0,34.9,58.4,44.1,34.6,99,89,52,29.46,29.32,0,0,0,0.00
2013-6-19,46.8,46.8,46.8,46.5,46.5,46.5,99,99,99,29.68,29.48,0,0,0,0.00
2013-6-20,46.8,46.8,46.8,46.5,46.5,46.5,99,99,99,29.71,29.58,0,0,0,0.00
2013-6-21,60.4,48.7,41.7,57.3,47.7,41.5,99,97,77,29.63,29.52,0,0,0,0.00
2013-6-22,61.0,47.7,37.8,56.7,46.2,37.5,99,95,70,29.75,29.65,0,0,0,0.01
2013-6-23,49.6,47.8,45.5,49.4,47.5,45.2,99,99,99,29.80,29.73,0,0,0,0.00
2013-6-29,60.6,57.0,53.6,60.4,56.8,53.3,99,99,99,29.69,29.61,0,0,0,0.18
2013-6-30,59.5,53.8,50.2,59.3,53.5,49.9,99,99,99,29.73,29.65,0,0,0,0.02
2013-7-1,63.3,53.8,46.9,63.1,51.3,21.8,99,93,35,29.70,29.61,0,0,12,0.02
2013-7-2,62.6,50.6,43.7,61.1,50.0,43.4,99,98,82,29.72,29.59,0,0,0,0.00
2013-7-3,63.5,49.6,42.3,59.9,48.8,42.0,99,97,73,29.72,29.59,0,0,0,0.01
2013-7-4,70.0,51.3,34.9,61.3,48.5,34.6,99,91,57,29.58,29.35,0,0,0,0.00
2013-7-5,67.8,54.1,41.9,60.5,40.2,24.9,99,67,27,29.50,29.28,0,0,0,0.00
2013-7-6,60.8,44.1,31.3,51.7,35.3,24.0,99,78,25,29.67,29.52,0,0,0,0.00
2013-7-7,61.7,42.1,28.9,53.3,37.5,28.7,99,87,35,29.84,29.70,0,0,0,0.00
2013-7-8,59.5,35.9,30.7,53.3,35.3,30.5,99,98,68,29.94,29.85,0,0,0,0.00
2013-7-9,70.7,60.8,42.8,67.9,60.1,42.5,99,98,86,29.92,29.67,0,0,0,0.05
2013-7-10,56.5,47.6,41.9,56.2,47.3,41.6,99,99,99,29.93,29.83,0,0,0,0.00
2013-7-11,63.5,50.6,44.2,61.3,48.7,40.7,99,94,67,29.96,29.84,49,6,49,0.00
2013-7-12,59.0,51.5,44.6,58.6,41.6,2.5,99,84,10,29.87,29.71,12,1,12,0.01
2013-7-13,65.7,52.7,45.1,63.2,47.2,20.4,99,86,35,29.78,29.69,0,0,0,0.01
2013-7-14,66.4,51.4,43.7,63.1,50.3,43.4,99,96,73,29.76,29.65,0,0,0,0.00
2013-7-15,67.5,55.7,49.5,65.9,55.0,49.2,99,97,79,29.65,29.56,0,0,0,0.04
2013-7-16,70.0,58.4,51.8,68.5,57.2,51.5,99,96,70,29.66,29.58,0,0,0,0.01
2013-7-17,70.9,57.4,49.8,68.5,56.1,49.6,99,96,74,29.64,29.53,0,0,0,0.07
2013-7-18,71.8,56.4,46.2,69.4,55.4,46.0,99,97,71,29.61,29.46,0,0,0,0.00
2013-7-19,70.2,55.9,48.7,66.6,55.5,48.5,99,98,79,29.45,29.28,0,0,0,0.05
2013-7-20,67.6,58.9,53.2,64.7,49.1,30.2,99,75,37,29.26,29.09,0,0,0,0.01
2013-7-21,61.9,49.3,37.4,38.8,33.1,21.3,99,58,22,29.45,29.29,0,0,0,0.00
2013-7-22,60.8,43.5,30.2,56.4,35.0,27.6,99,78,30,29.51,29.42,0,0,0,0.00
2013-7-23,63.0,45.1,29.7,54.6,37.2,29.4,99,79,34,29.58,29.44,0,0,0,0.00
2013-7-24,62.4,48.0,36.3,54.7,42.8,36.1,99,85,47,29.76,29.60,0,0,0,0.00
2013-7-25,64.4,46.0,33.4,55.0,41.9,33.2,99,88,44,29.82,29.69,0,0,0,0.00
2013-7-26,66.6,47.0,35.2,57.4,42.0,35.0,99,87,42,29.72,29.60,0,0,0,0.00
2013-7-27,66.7,46.6,32.5,56.8,42.5,32.3,99,88,53,29.84,29.72,0,0,0,0.00
2013-7-28,66.4,49.8,40.8,61.6,48.4,40.6,99,96,59,29.81,29.67,0,0,0,0.00
2013-7-29,70.9,51.8,38.5,63.2,46.2,38.2,99,85,38,29.69,29.53,0,0,0,0.00
2013-7-30,70.7,54.5,40.8,62.0,48.7,40.6,99,85,43,29.54,29.42,0,0,0,0.01
2013-7-31,63.0,54.3,46.6,62.7,53.9,46.3,99,99,90,29.61,29.52,0,0,0,0.00
2013-8-1,66.6,50.8,39.9,58.9,46.7,39.7,99,88,46,29.61,29.48,0,0,0,0.01
2013-8-2,66.7,51.7,42.1,61.3,45.4,34.5,99,84,31,29.50,29.30,0,0,0,0.00
2013-8-3,65.1,49.4,35.2,54.2,38.5,28.3,99,74,26,29.41,29.28,0,0,0,0.00
2013-8-4,66.7,50.6,37.6,49.7,38.0,21.4,99,69,19,29.43,29.28,0,0,0,0.00
2013-8-5,67.5,49.3,33.1,53.5,38.3,31.1,99,73,27,29.47,29.33,0,0,0,0.00
2013-8-6,73.0,51.2,32.7,54.6,36.5,21.1,99,68,14,29.40,29.18,0,0,0,0.00
2013-8-7,70.2,53.8,45.5,58.6,48.8,42.1,99,87,37,29.31,29.14,0,0,0,0.39
2013-8-8,57.4,51.3,43.3,51.9,47.3,39.5,99,87,55,29.36,29.08,0,0,0,0.02
2013-8-9,67.1,50.6,35.8,54.5,43.9,35.5,99,83,38,29.48,29.32,0,0,0,0.00
2013-8-10,73.8,55.6,41.2,54.7,43.7,29.9,99,74,22,29.41,29.31,0,0,0,0.20
2013-8-11,74.7,48.6,39.6,57.0,42.0,35.5,99,85,26,29.47,29.29,0,0,0,0.00
2013-8-12,78.1,56.8,39.4,62.2,40.8,21.5,99,66,13,29.27,29.02,0,0,0,0.00
2013-8-13,70.5,50.7,32.2,49.2,32.3,16.8,99,62,13,29.39,29.28,0,0,0,0.00
2013-8-14,73.6,52.1,36.5,56.8,33.6,13.3,99,64,10,29.38,29.16,0,0,0,0.00
2013-8-15,66.7,53.3,39.9,44.3,29.1,5.6,99,50,10,29.57,29.20,0,0,0,0.00
2013-8-16,71.2,50.1,30.0,51.9,33.3,16.5,99,65,14,29.62,29.37,0,0,0,0.00
2013-8-17,74.1,56.2,39.9,60.5,44.2,31.7,99,70,33,29.32,29.14,0,0,0,0.00
2013-8-18,73.6,52.7,34.0,54.1,34.4,17.9,99,62,12,29.45,29.28,0,0,0,0.00
2013-8-19,71.8,57.1,39.4,43.6,29.6,16.6,99,43,13,29.30,29.10,0,0,0,0.00
2013-8-20,62.8,48.5,32.9,41.1,23.6,3.9,99,48,10,29.39,29.25,0,0,0,0.00
2013-8-21,63.9,44.5,27.3,42.4,29.5,18.7,99,66,18,29.42,29.30,0,0,0,0.00
2013-8-22,64.4,46.8,28.6,49.5,31.6,23.0,99,65,21,29.40,29.23,0,0,0,0.00
2013-8-23,66.4,55.8,42.1,45.9,39.2,30.9,99,58,28,29.35,29.21,0,0,0,0.00
2013-8-24,76.8,57.6,41.0,56.7,43.1,30.0,99,68,19,29.58,29.36,0,0,0,0.00
2013-8-25,79.3,56.3,41.4,58.3,42.9,24.3,99,71,13,29.65,29.48,0,0,0,0.00
2013-8-26,73.4,52.5,34.7,54.2,41.1,32.0,99,73,23,29.65,29.48,0,0,0,0.00
2013-8-27,76.3,55.8,40.3,55.8,43.0,30.6,99,70,19,29.58,29.41,0,0,0,0.00
2013-8-28,78.4,57.1,43.5,60.5,42.5,22.6,99,69,13,29.59,29.47,0,0,0,0.00
2013-8-29,78.1,58.1,42.6,60.5,46.8,29.3,99,75,19,29.62,29.44,0,0,0,0.00
2013-8-30,85.5,66.2,50.5,64.3,45.0,22.0,99,59,11,29.41,29.24,0,0,0,0.00
2013-8-31,78.6,59.0,44.8,56.6,42.6,24.1,99,66,15,29.62,29.42,0,0,0,0.00
2013-9-1,79.7,57.8,39.9,55.7,45.0,35.1,99,70,20,29.75,29.65,0,0,0,0.00
2013-9-2,80.4,58.9,44.1,59.6,47.0,37.0,99,72,21,29.83,29.73,0,0,0,0.00
2013-9-3,81.5,58.8,43.9,61.2,49.5,42.2,99,77,27,29.92,29.79,0,0,0,0.00
2013-9-4,82.0,59.7,46.9,62.7,47.1,26.6,99,73,14,29.90,29.71,0,0,0,0.00
2013-9-5,88.5,61.7,43.0,58.6,43.3,23.6,99,64,10,29.77,29.59,0,0,0,0.00
2013-9-6,84.0,64.7,46.2,61.0,48.8,39.8,99,66,22,29.71,29.55,0,0,0,0.00
2013-9-7,90.3,67.6,50.5,65.1,41.5,21.0,99,56,10,29.62,29.44,0,0,0,0.00
2013-9-8,74.3,65.1,58.8,62.9,59.8,55.3,99,85,53,29.65,29.53,0,0,0,0.00
2013-9-9,67.5,44.3,34.2,54.4,36.7,28.3,99,84,23,30.21,30.14,0,0,0,0.00
2013-9-10,73.6,54.0,39.6,41.9,34.2,16.9,99,61,12,30.11,30.04,0,0,0,0.00
2013-9-11,72.0,53.5,39.4,44.0,34.6,21.5,99,57,16,30.04,29.88,0,0,0,0.00
2013-9-12,70.3,56.6,45.3,30.1,24.6,16.5,53,31,13,30.06,29.86,0,0,0,0.00
2013-9-13,62.8,49.5,33.1,40.7,22.5,4.0,99,48,10,30.10,30.01,0,0,0,0.00
2013-9-14,66.2,42.3,27.3,57.4,34.3,17.4,99,78,29,30.18,29.94,0,0,0,0.18
2013-9-15,75.9,58.5,47.1,60.0,50.5,45.8,99,79,36,30.21,30.09,0,0,0,0.00
2013-9-16,65.3,54.9,46.8,61.8,53.7,46.5,99,96,75,30.16,29.78,0,0,0,0.27
2013-9-17,70.9,60.9,54.7,63.1,57.1,38.0,99,89,31,30.25,29.63,0,0,0,0.09
2013-9-18,79.7,63.6,50.2,58.9,43.6,17.0,99,60,11,29.77,29.69,0,0,0,0.00
2013-9-19,78.1,59.8,45.7,50.4,31.4,10.0,99,50,10,29.92,29.74,0,0,0,0.00
2013-9-20,74.5,57.0,38.8,49.6,30.9,8.2,99,50,10,30.03,29.83,0,0,0,0.00
2013-9-21,81.0,56.4,36.5,52.8,37.0,18.9,99,60,10,30.11,29.97,0,0,0,0.00
2013-9-22,85.6,58.9,39.7,54.0,37.6,15.5,99,61,10,30.11,29.97,0,0,0,0.00
2013-9-23,91.2,66.9,46.0,58.2,37.3,15.6,99,52,10,30.09,29.84,0,0,0,0.00
2013-9-24,92.8,66.7,41.4,58.8,37.9,-11.1,96,51,10,29.92,29.67,24,0,24,0.00
2013-9-25,98.6,69.8,46.6,52.2,36.1,19.3,95,42,10,29.97,29.82,0,0,0,0.00
2013-9-26,91.4,68.8,46.2,56.1,31.8,6.3,99,43,10,30.09,29.74,0,0,91,0.00
2013-9-27,87.6,60.8,38.7,41.4,27.0,12.6,82,37,10,30.27,30.09,0,0,0,0.00
2013-9-28,89.2,66.0,41.5,54.5,30.3,6.1,99,46,10,30.09,29.85,0,0,0,0.00
2013-9-29,89.8,63.1,42.8,44.6,30.0,13.4,80,38,10,30.18,30.03,0,0,0,0.00
2013-9-30,95.9,65.8,41.0,56.3,33.8,14.0,99,49,10,30.19,29.96,0,0,0,0.00
2013-10-1,89.8,64.9,47.1,51.9,42.3,26.0,86,52,10,29.99,29.75,0,0,0,0.00
2013-10-2,87.3,63.5,41.7,46.4,27.8,12.6,92,38,10,30.15,29.89,0,0,0,0.00
2013-10-3,70.3,55.9,45.7,47.1,37.0,23.1,93,55,17,30.23,29.84,0,0,0,0.04
2013-10-4,84.2,56.3,37.8,53.5,35.1,14.5,99,59,10,30.32,30.09,0,0,0,0.04
2013-10-5,91.2,64.6,41.9,53.9,34.1,14.4,99,50,10,30.24,29.94,0,0,0,0.04
2013-10-6,99.1,69.7,42.1,50.2,31.6,12.5,91,39,10,30.09,29.75,0,0,0,0.04
2013-10-7,78.6,62.2,46.0,45.9,38.3,28.0,76,46,16,30.05,29.80,0,0,0,0.00
2013-10-8,78.4,63.2,49.3,58.5,40.5,14.3,99,56,10,30.23,29.84,0,0,0,0.00
2013-10-9,98.1,64.8,40.8,57.5,35.7,17.6,99,51,10,30.25,30.01,0,0,0,0.00
2013-10-10,102.4,72.6,43.9,49.7,32.5,13.4,89,37,10,30.07,29.73,0,0,0,0.00
2013-10-11,88.7,69.6,57.9,56.4,47.1,17.8,85,49,18,30.10,29.73,0,0,0,0.00
2013-10-12,102.4,69.7,45.9,58.2,39.6,13.6,99,50,10,30.14,29.83,0,0,0,0.00
2013-10-13,99.5,77.0,54.0,60.0,38.3,19.1,93,40,10,29.86,29.52,0,0,0,0.00
2013-10-14,82.4,62.5,49.5,56.4,33.7,13.0,88,42,10,30.25,29.79,0,0,0,0.02
2013-10-15,91.0,60.2,36.5,45.1,24.9,7.0,91,40,10,30.34,29.84,0,0,0,0.02
2013-10-16,96.4,65.0,37.0,44.2,26.0,9.2,86,35,10,30.25,29.99,0,0,0,0.02
2013-10-17,97.0,73.2,46.8,37.3,25.8,10.1,65,23,10,30.09,29.74,0,0,0,0.02
2013-10-18,75.9,63.8,51.3,40.5,23.0,2.8,59,24,10,30.45,30.14,0,0,0,0.02
2013-10-19,86.5,62.8,40.5,52.0,36.6,17.0,95,52,10,30.48,29.84,0,0,0,0.02
2013-10-20,99.3,73.4,51.8,58.5,43.8,23.0,98,49,10,30.32,30.04,0,0,0,0.02
2013-10-21,104.9,78.0,52.5,59.5,41.2,22.3,95,41,10,30.15,29.94,0,0,0,0.02
2013-10-22,91.6,75.2,60.6,62.3,53.9,46.5,76,51,22,30.09,29.92,0,0,0,0.02
2013-10-23,99.3,82.4,67.8,60.7,39.6,16.3,78,30,10,29.94,29.72,0,0,0,0.02
2013-10-24,84.7,68.7,54.3,41.8,25.1,4.5,61,25,10,30.25,29.84,0,0,0,0.02
2013-10-25,85.1,60.8,37.4,39.8,24.0,11.6,66,32,10,30.35,29.84,0,0,0,0.02
2013-10-26,85.3,61.5,41.7,49.9,34.2,13.3,89,49,10,30.30,30.15,0,0,0,0.02
2013-10-27,84.0,65.2,46.6,54.8,40.3,17.1,94,52,10,30.33,29.84,0,0,0,0.02
2013-10-28,88.3,68.1,51.8,55.0,44.9,17.8,92,53,10,30.27,29.84,0,0,0,0.02
2013-10-29,90.9,63.5,49.5,58.5,48.9,17.8,99,72,10,30.10,29.73,0,0,0,0.24
2013-10-30,83.7,63.9,52.9,55.7,46.8,17.8,99,62,14,30.22,29.84,0,0,0,0.28
2013-10-31,88.5,64.6,46.9,54.9,42.7,17.8,99,59,10,30.30,30.11,0,0,0,0.28
2013-11-1,83.3,71.7,61.7,53.9,33.1,17.8,75,28,14,30.33,29.84,0,0,0,0.28
2013-11-2,98.2,72.9,52.3,62.3,43.7,22.1,99,53,10,30.22,29.93,0,0,0,0.28
2013-11-3,98.1,73.1,52.7,55.0,41.7,17.8,89,46,10,30.19,29.82,0,0,0,0.28
2013-11-4,75.0,62.3,50.7,47.2,31.2,11.4,78,39,10,30.43,30.17,0,0,0,0.28
2013-11-5,68.9,60.1,52.2,44.8,39.4,17.8,74,48,14,30.47,30.36,0,0,0,0.38
2013-11-6,86.7,63.3,42.3,55.8,38.9,17.8,99,54,10,30.38,29.84,0,0,0,0.00
2013-11-7,97.7,71.6,46.6,58.5,40.3,25.9,99,47,10,30.18,29.92,0,0,0,0.00
2013-11-8,103.6,79.6,52.9,53.8,39.4,27.4,81,35,10,30.00,29.73,0,0,0,0.00
2013-11-9,96.1,78.2,63.7,54.4,43.9,17.8,67,36,10,30.04,29.74,0,0,0,0.00
2013-11-10,76.5,63.0,57.7,57.5,51.0,17.8,99,68,14,30.17,29.84,0,0,0,0.05
2013-11-11,65.1,60.4,57.0,64.3,60.1,56.8,99,99,95,30.15,30.02,0,0,0,0.54
2013-11-12,81.5,64.7,58.8,68.9,59.7,29.8,99,87,31,30.08,29.84,0,0,0,1.24
2013-11-13,91.9,71.3,58.1,67.6,44.0,16.3,99,55,10,29.98,29.82,0,0,0,0.01
2013-11-14,95.7,69.0,50.2,59.3,40.7,17.8,99,52,10,29.99,29.80,0,0,0,0.00
2013-11-15,83.5,66.5,53.2,64.1,51.6,17.8,99,67,14,30.01,29.90,0,0,0,0.01
2013-11-16,79.9,64.7,55.6,62.2,53.4,39.9,99,73,24,30.01,29.91,0,0,0,0.11
2013-11-17,68.9,57.6,56.3,59.4,57.2,17.8,99,99,91,29.99,29.95,0,0,0,0.92
2013-11-18,73.9,59.3,54.7,71.3,58.6,54.4,99,97,79,29.96,29.77,0,0,0,1.18
2013-11-19,77.0,63.6,57.7,66.5,60.2,57.3,99,90,51,29.89,29.83,0,0,0,1.18
2013-11-20,72.5,69.1,66.0,66.5,62.4,60.1,95,80,65,30.03,29.87,0,0,0,0.00
2013-11-21,71.2,65.2,64.0,68.8,64.6,63.6,99,98,92,29.98,29.84,0,0,0,0.12
2013-11-22,80.2,69.8,64.0,71.8,65.2,60.1,99,86,55,29.93,29.79,0,0,0,0.48
2013-11-23,75.2,64.2,57.7,73.6,63.4,57.5,99,98,70,30.09,29.71,0,0,0,0.33
2013-11-24,83.7,67.6,55.8,71.7,53.0,26.8,99,70,14,29.91,29.74,0,0,0,0.00
2013-11-25,82.9,64.0,54.9,69.7,56.6,43.3,99,83,27,30.07,29.84,0,0,0,0.21
2013-11-26,83.5,63.0,49.3,60.5,47.5,36.1,99,66,21,30.17,30.05,0,0,0,0.00
2013-11-27,94.8,66.9,48.7,62.9,45.6,22.8,99,61,10,30.19,30.01,0,0,0,0.00
2013-11-28,102.7,74.1,51.3,67.2,45.2,26.7,99,53,10,30.08,29.72,0,0,0,0.00
2013-11-29,74.3,64.3,55.6,71.3,62.5,54.7,99,94,67,30.06,29.63,0,0,0,0.28
2013-11-30,78.8,63.5,54.5,65.4,53.7,45.5,99,75,33,30.33,30.06,0,0,0,0.01
2013-12-1,80.6,62.5,49.5,63.4,52.8,46.5,99,75,31,30.38,30.30,0,0,0,0.00
2013-12-2,93.7,66.5,48.7,65.4,48.7,29.0,99,64,10,30.36,30.14,0,0,0,0.00
2013-12-3,99.7,70.1,49.5,64.3,47.1,27.7,99,58,10,30.19,29.95,0,0,0,0.00
2013-12-4,99.1,75.8,52.9,68.3,43.6,24.3,99,49,10,29.96,29.55,0,0,0,0.00
2013-12-5,82.0,70.1,54.1,76.7,43.4,14.0,99,45,10,29.88,29.50,0,0,0,0.09
2013-12-6,83.8,62.8,43.9,44.6,31.4,13.8,93,41,10,30.18,29.88,0,0,0,0.00
2013-12-7,95.5,66.0,44.6,56.7,40.4,23.3,99,52,10,30.26,30.11,0,0,0,0.00
2013-12-8,101.1,72.8,48.9,59.9,42.5,23.0,99,48,10,30.22,29.94,0,0,0,0.00
2013-12-9,102.0,78.5,57.0,62.7,45.6,27.7,99,45,10,29.99,29.68,0,0,0,0.00
2013-12-10,101.1,84.3,69.3,58.3,42.1,19.7,63,29,10,29.85,29.66,0,0,0,0.00
2013-12-11,99.7,76.3,58.5,64.1,47.5,24.7,99,49,10,29.92,29.71,0,0,0,0.00
2013-12-12,91.4,73.1,57.2,64.3,54.0,41.0,99,60,20,29.97,29.85,0,0,0,0.00
2013-12-13,97.2,75.0,55.8,68.0,53.7,29.0,99,59,10,30.00,29.84,0,0,0,0.00
2013-12-14,86.0,72.4,63.3,68.3,59.4,49.3,99,69,29,30.16,29.91,0,0,0,0.00
2013-12-15,91.0,72.5,60.3,62.6,55.3,45.4,99,61,23,30.19,30.06,0,0,0,0.00
2013-12-16,88.0,72.1,59.0,65.6,54.7,42.9,99,61,22,30.25,30.12,0,0,0,0.00
2013-12-17,95.4,73.4,56.1,65.3,50.5,30.3,99,55,10,30.27,30.14,0,0,0,0.00
2013-12-18,92.7,72.4,56.5,66.3,50.6,28.2,99,57,10,30.33,30.21,0,0,0,0.00
2013-12-19,104.7,75.4,52.5,64.6,47.9,28.5,99,52,10,30.30,30.09,0,0,0,0.00
2013-12-20,113.2,84.4,60.1,66.1,47.0,29.0,99,43,10,30.13,29.91,0,0,0,0.00
2013-12-21,97.7,80.3,68.5,64.4,58.4,51.2,86,51,21,30.09,29.94,0,0,0,0.00
2013-12-22,107.6,86.5,69.3,66.5,52.6,33.4,87,43,10,30.09,29.81,0,0,0,0.00
2013-12-23,97.2,83.0,68.4,62.2,47.5,28.1,71,36,10,29.94,29.74,0,0,0,0.00
2013-12-24,73.9,68.2,64.2,64.8,61.0,58.1,95,78,65,30.21,29.96,0,0,0,0.04
2013-12-25,70.9,66.7,63.7,69.2,65.9,61.9,99,97,85,30.19,30.00,0,0,0,0.54
2013-12-26,91.8,73.5,65.3,70.5,61.5,44.8,99,73,21,30.00,29.84,0,0,0,0.02
2013-12-27,89.6,72.8,59.9,70.2,58.1,47.6,99,67,26,29.99,29.86,0,0,0,0.00
2013-12-28,97.2,75.0,60.8,68.5,59.5,48.1,99,67,19,29.99,29.73,0,0,0,0.00
2013-12-29,84.9,72.0,60.6,71.9,49.9,25.7,99,55,12,30.08,29.66,0,0,0,0.00
2013-12-30,91.8,72.1,59.4,59.0,49.5,38.2,93,52,16,30.08,29.88,0,0,0,0.00
2013-12-31,99.5,72.4,52.5,64.0,50.8,25.2,99,59,10,30.08,29.85,0,0,0,0.00
2014-1-1,92.8,76.0,60.8,68.2,56.8,40.1,99,59,16,30.08,29.84,0,0,0,0.00
2014-1-2,101.3,82.4,68.2,73.0,53.5,27.9,99,52,10,29.81,29.66,0,0,0,0.01